Orlando International, FL

8:00 AM EDT on August 22, 2017 (GMT -0400)
Orlando International

Weather History for KMCO - April, 2013

Change the Weather History Date:

Monday, April 1, 2013

  Actual Average Record
Temperature  
Mean Temperature 73 °F 69 °F  
Max Temperature 86 °F 80 °F 93 °F (1935)
Min Temperature 60 °F 58 °F 42 °F (1987)
Degree Days  
Heating Degree Days 0 1  
Month to date heating degree days 0 1  
Since 1 July heating degree days 461 559  
Cooling Degree Days 8 5  
Month to date cooling degree days 8 5  
Year to date cooling degree days 259 227  
Growing Degree Days 23 (Base 50)    
Moisture  
Dew Point 60 °F    
Average Humidity 68    
Maximum Humidity 93    
Minimum Humidity 43    
Precipitation  
Precipitation 0.00 in 0.11 in 1.96 in (1957)
Month to date precipitation 0.00 0.11  
Year to date precipitation 2.18 8.61  
Sea Level Pressure  
Sea Level Pressure 30.00 in    
Wind  
Wind Speed 9 mph (WSW)    
Max Wind Speed 22 mph    
Max Gust Speed 31 mph    
Visibility 10 miles    
Events      
T = Trace of Precipitation, MM = Missing Value Source: NWS Daily Summary

Daily Weather History Graph

Daily Weather History Graph

Search for Another Location

Airport or City:

Trip Planner

Search our weather history database for the weather conditions in past years. The results will help you decide how hot, cold, wet, or windy it might be!

Date:

Astronomy

Apr. 01, 2013 Rise Set
Actual Time 7:15 AM EDT 7:43 PM EDT
Civil Twilight 6:51 AM EDT 8:07 PM EDT
Nautical Twilight 6:23 AM EDT 8:34 PM EDT
Astronomical Twilight 5:55 AM EDT 9:03 PM EDT
Moon 12:29 AM EDT (4/1) 11:21 AM EDT (4/1)
Length of Visible Light 13h 15m
Length of Day
12h 28m
Waning Gibbous, 67% of the Moon is Illuminated
Apr 1
Waning Gibbous
Apr 3
Last Quarter
Apr 10
New
Apr 18
First Quarter
Apr 25
Full

Hourly Weather History & Observations

Time (EDT) Temp. Heat Index Dew Point Humidity Pressure Visibility Wind Dir Wind Speed Gust Speed Precip Events Conditions
12:53 AM 66.0 °F - 55.9 °F 70% 30.04 in 10.0 mi Calm Calm - N/A   Mostly Cloudy
1:53 AM 64.9 °F - 57.0 °F 75% 30.04 in 10.0 mi Calm Calm - N/A   Mostly Cloudy
2:53 AM 64.9 °F - 57.9 °F 78% 30.02 in 10.0 mi SSE 6.9 mph - N/A   Mostly Cloudy
3:53 AM 64.0 °F - 57.9 °F 80% 30.01 in 10.0 mi South 4.6 mph - N/A   Mostly Cloudy
4:53 AM 64.0 °F - 57.9 °F 80% 30.01 in 10.0 mi SW 3.5 mph - N/A   Mostly Cloudy
5:53 AM 62.1 °F - 57.9 °F 86% 30.01 in 10.0 mi Calm Calm - N/A   Mostly Cloudy
6:53 AM 62.1 °F - 57.9 °F 86% 30.02 in 10.0 mi Calm Calm - N/A   Mostly Cloudy
7:53 AM 63.0 °F - 60.1 °F 90% 30.04 in 10.0 mi SSE 3.5 mph - N/A   Mostly Cloudy
8:53 AM 66.9 °F - 62.1 °F 84% 30.05 in 10.0 mi SSW 3.5 mph - N/A   Mostly Cloudy
9:53 AM 73.0 °F - 64.9 °F 76% 30.04 in 10.0 mi SSW 11.5 mph - N/A   Mostly Cloudy
10:53 AM 77.0 °F - 63.0 °F 62% 30.03 in 10.0 mi SSW 12.7 mph - N/A   Mostly Cloudy
11:53 AM 80.1 °F 80.9 °F 60.1 °F 50% 30.02 in 10.0 mi SSW 13.8 mph 24.2 mph N/A   Mostly Cloudy
12:53 PM 81.0 °F 81.3 °F 59.0 °F 47% 30.01 in 10.0 mi SW 17.3 mph 21.9 mph N/A   Mostly Cloudy
1:53 PM 84.0 °F 83.8 °F 59.0 °F 43% 29.98 in 10.0 mi West 16.1 mph 20.7 mph N/A   Mostly Cloudy
2:53 PM 84.9 °F 84.4 °F 59.0 °F 41% 29.96 in 10.0 mi WSW 11.5 mph 23.0 mph N/A   Mostly Cloudy
3:53 PM 82.9 °F 82.6 °F 57.9 °F 42% 29.94 in 10.0 mi West 16.1 mph - N/A   Mostly Cloudy
4:53 PM 84.0 °F 83.8 °F 59.0 °F 43% 29.94 in 10.0 mi West 16.1 mph 25.3 mph N/A   Mostly Cloudy
5:53 PM 82.0 °F 82.0 °F 57.9 °F 44% 29.94 in 10.0 mi WNW 18.4 mph 25.3 mph N/A   Scattered Clouds
6:53 PM 80.1 °F 80.7 °F 59.0 °F 48% 29.96 in 10.0 mi West 15.0 mph - N/A   Partly Cloudy
7:53 PM 77.0 °F - 60.1 °F 56% 29.97 in 10.0 mi WNW 10.4 mph - N/A   Clear
8:53 PM 73.9 °F - 61.0 °F 64% 29.99 in 10.0 mi West 6.9 mph - N/A   Clear
9:53 PM 73.0 °F - 62.1 °F 68% 30.01 in 10.0 mi West 8.1 mph - N/A   Clear
10:53 PM 70.0 °F - 62.1 °F 76% 30.02 in 10.0 mi West 5.8 mph - N/A   Clear
11:53 PM 69.1 °F - 63.0 °F 81% 30.02 in 10.0 mi West 8.1 mph - N/A   Clear